Terminal Aerodrome Forecast
Issued by NWS Wilmington, OH

Home | Current Version | Previous Version | Text Only | Print | Product List | Glossary On
Versions: 1 2 3 4 5 6 7 8 9 10 11 12 13 14 15 16
000
FTUS41 KILN 291738
TAFCMH
TAF
KCMH 291738Z 2918/3018 21006KT P6SM SCT050 SCT100
     FM292300 19005KT P6SM VCTS BKN040CB
      TEMPO 3000/3002 VRB12G20KT 5SM -TSRA BKN030CB
     FM300300 21002KT P6SM BKN050
     FM300600 32003KT P6SM SKC
     FM301500 30008KT P6SM FEW050=

USA.gov is the U.S. government's official web portal to all federal, state and local government web resources and services.